Simultaneous Nadir Overpasses (SNOs) Predictions

Prediction of SNOs between NOAA-20 and METOP-C Satellite Orbit:

Table of predicted SNOs for the next 14.0 days since TLE Epoch: 3/8/2020
Index Date (NOAA-20) Time (NOAA-20) Lat,Lon (NOAA-20) SZA (NOAA-20 ) Date (METOP-C) Time (METOP-C) Lat,Lon (METOP-C) SZA (METOP-C ) Distance(km) Time Diff (sec)
1 03/22/2020 08:34:31 -73.42,-138.21 107.22 03/22/2020 08:35:38 -73.36,-135.39 107.43 89.98 67
2 03/22/2020 09:25:13 73.23, 29.53 72.56 03/22/2020 09:26:22 73.16, 31.52 72.38 64.30 69
3 03/22/2020 10:15:55 -73.12,-162.92 107.57 03/22/2020 10:17:05 -73.09,-161.32 107.70 51.90 70
4 03/22/2020 11:06:37 72.93, 4.80 72.21 03/22/2020 11:07:49 72.89, 5.59 72.11 26.12 72
5 03/22/2020 11:57:19 -72.82, 172.34 107.93 03/22/2020 11:58:33 -72.77, 172.66 108.02 12.11 74
6 03/22/2020 12:48:03 72.73, -20.15 71.96 03/22/2020 12:49:14 72.72, -20.11 71.93 1.86 71
7 03/22/2020 13:38:47 -72.73, 147.17 108.06 03/22/2020 13:39:56 -72.70, 147.17 108.11 3.30 69
8 03/22/2020 14:29:32 72.68, -45.43 71.88 03/22/2020 14:30:36 72.70, -45.49 71.89 2.75 64
9 03/22/2020 15:20:16 -72.68, 121.89 108.14 03/22/2020 15:21:18 -72.68, 121.79 108.15 3.41 62
10 03/22/2020 16:11:02 72.69, -70.81 71.86 03/22/2020 16:11:58 72.68, -70.87 71.84 1.91 56
11 03/22/2020 17:01:46 -72.68, 96.51 108.17 03/22/2020 17:02:39 -72.71, 96.51 108.15 2.78 53
12 03/22/2020 17:52:32 72.69, -96.20 71.83 03/22/2020 17:53:19 72.71, -96.14 71.84 2.99 47




NCC Satellite Simultaneous Nadir Overpasses (SNOs) Prediction Service
